Location: ??????
(55.6361°N, 38.0803°E)
Time: 01:12:01
(UTC+00:00)

CZ-4C R/B - Pass Details

Date: 30 March 2020
Orbit: 410 x 491 km, 97.6° (Epoch: 26 May)

Event Time Altitude Azimuth Distance (km) Brightness Sun altitude
Exits shadow 00:22:23 53° 339° (NNW) 527 3.3 -21.0°
Drops below altitude 10° 00:24:56 10° 344° (NNW) 1,510 5.9 -20.8°
Sets 00:26:55 0° 345° (NNW) 2,373 6.9 -20.6°
